This demonstration page uses our WeatherBlox Daily Observations layout. Learn more.

Left ArrowRight Arrow

41.86663, -103.66717

Hourly Observations for April 30, 2016

Temp ( °F °C ) Dew Point ( °F °C ) Humidity (%) Winds ( mph kmh ) Pressure ( in mb ) Visibility ( mi km ) Precip ( " mm )
12:11 am 00:11 Cloudy with Light Snow 33 0.6 31 -0.6 92 92 N 5 7 30.03 1017 1 2 0.02 0.51
12:53 am 00:53 Cloudy with Light Snow 33 0.6 31 -0.6 92 92 N 5 7 29.95 1014 2 2 0.07 1.78
1:53 am 01:53 Cloudy with Light Snow 33 0.6 31 -0.6 92 92 N 6 9 29.94 1014 2 3 0.04 1.02
2:53 am 02:53 Cloudy with Light Snow 33 0.6 31 -0.6 92 92 WNW 6 9 29.95 1014 2 3 0.04 1.02
3:14 am 03:14 Cloudy with Light Snow 34 1 30 -1 87 87 NW 6 9 30.03 1017 2 3 N/A
3:53 am 03:53 Cloudy with Light Snow 33 0.6 31 -0.6 92 92 NW 7 11 29.96 1015 2 3 0.05 1.27
4:01 am 04:01 Cloudy with Light Snow 33 0.6 31 -0.6 92 92 NW 7 11 30.03 1017 3 4 N/A
4:34 am 04:34 Cloudy with Light Snow 34 1 30 -1 87 87 NNW 7 11 30.03 1017 3 5 N/A
4:53 am 04:53 Cloudy with Light Snow 33 0.6 31 -0.6 92 92 N 7 11 29.96 1014 4 6 0.03 0.76
5:26 am 05:26 Cloudy with Light Snow 34 1 30 -1 87 87 N 9 15 30.03 1017 4 6 N/A
5:37 am 05:37 Cloudy with Light Snow 34 1.1 31 -0.6 89 89 N 10 17 30.03 1017 4 6 0.01 0.25
5:53 am 05:53 Cloudy with Light Snow 34 1.1 31 -0.6 89 89 N 13 20 29.96 1014 4 6 0.01 0.25
6:13 am 06:13 Cloudy with Light Snow 34 1.1 31 -0.6 89 89 N 15 24 30.03 1017 5 8 N/A
6:23 am 06:23 Cloudy with Light Snow 34 1.1 31 -0.6 89 89 N 14 22 30.03 1017 3 5 0.01 0.25
6:32 am 06:32 Cloudy with Light Snow 34 1 30 -1 87 87 N 16 26 30.03 1017 3 4 N/A
6:42 am 06:42 Cloudy with Light Snow 34 1 30 -1 87 87 N 15 24 30.03 1017 3 5 N/A
6:53 am 06:53 Cloudy with Light Snow 34 1.1 31 -0.6 89 89 N 17 28 29.97 1015 4 6 0.01 0.25
7:53 am 07:53 Windy with Snow Likely 35 1.7 31 -0.6 85 85 N 21 33 29.98 1015 4 6 0.02 0.51
8:04 am 08:04 Windy with Snow Likely 36 2 30 -1 81 81 N 20 31 30.00 1016 5 8 N/A
8:53 am 08:53 Cloudy with Light Rain 35 1.7 31 -0.6 85 85 N 20 31 30.00 1016 8 13 N/A
9:51 am 09:51 Windy with Snow Likely 36 2 32 undefined 87 87 N 20 31 30.00 1016 4 6 N/A
9:53 am 09:53 Cloudy with Light Snow 35 1.7 32 undefined 89 89 N 18 30 30.01 1016 4 6 N/A
10:28 am 10:28 Cloudy with Light Snow 36 2 32 undefined 87 87 N 16 26 30.03 1017 6 10 N/A
10:53 am 10:53 Cloudy with Light Rain 36 2.2 32 undefined 86 86 N 16 26 30.02 1017 10 16 0.03 0.76
11:53 am 11:53 Cloudy with Light Rain 37 2.8 33 0.6 86 86 N 17 28 30.04 1017 8 13 0.02 0.51
12:16 pm 12:16 Cloudy with Light Rain 37 2.8 34 1.1 89 89 N 21 33 30.03 1017 9 14 0.01 0.25
12:53 pm 12:53 Cloudy with Light Rain 38 3.3 35 1.7 89 89 N 20 31 30.03 1017 10 16 0.02 0.51
1:26 pm 13:26 Cloudy with Light Rain 38 3.3 36 2.2 93 93 N 22 35 30.06 1018 8 13 N/A
1:41 pm 13:41 Cloudy with Light Rain 38 3.3 37 2.8 97 97 N 18 30 30.06 1018 9 14 0.01 0.25
1:53 pm 13:53 Cloudy with Light Rain 38 3.3 37 2.8 97 97 N 16 26 30.05 1018 10 16 0.01 0.25
2:53 pm 14:53 Cloudy with Light Rain 37 3 N/A N/A N 20 31 30.08 1019 7 11 0.02 0.51
3:53 pm 15:53 Cloudy with Light Rain 37 3 N/A N/A N 18 30 30.09 1019 6 10 0.03 0.76
4:08 pm 16:08 Cloudy with Light Rain 37 3 N/A N/A N 13 20 30.12 1020 9 14 N/A
4:18 pm 16:18 Cloudy with Light Rain 37 3 N/A N/A NNW 13 20 30.12 1020 8 13 N/A
4:53 pm 16:53 Cloudy with Light Rain 37 3 N/A N/A N 14 22 30.11 1020 8 13 0.04 1.02
5:53 pm 17:53 Cloudy with Light Rain 37 3 N/A N/A NNW 14 22 30.13 1020 8 13 0.02 0.51
6:05 pm 18:05 Cloudy with Light Rain 37 3 N/A N/A N 15 24 30.15 1021 8 13 0.01 0.25
6:30 pm 18:30 Cloudy with Light Rain 37 3 N/A N/A NNW 12 19 30.15 1021 7 11 N/A
6:53 pm 18:53 Cloudy with Light Rain 37 3 N/A N/A NNW 9 15 30.15 1021 10 16 0.02 0.51
7:53 pm 19:53 Cloudy with Light Rain 37 3 N/A N/A NNW 9 15 30.17 1022 10 16 0.01 0.25
8:53 pm 20:53 Cloudy 38 3.3 38 3.3 100 100 N 13 20 30.19 1022 10 16 N/A
9:53 pm 21:53 Cloudy with Light Rain 37 2.8 36 2.2 96 96 NNW 12 19 30.22 1023 10 16 0.01 0.25
10:53 pm 22:53 Cloudy with Light Rain 38 3.3 34 1.1 86 86 N 13 20 30.23 1024 10 16 N/A
11:39 pm 23:39 Cloudy with Light Rain 38 3.3 34 1.1 86 86 N 12 19 30.27 1025 10 16 N/A
11:53 pm 23:53 Cloudy with Light Rain 37 2.8 34 1.1 89 89 N 12 19 30.24 1024 10 16 0.01 0.25

Powered by AerisWeather